CW2274 Weather Reports


Display with metric or nautical units.
time (UTC)temp
F
wind
direction
speed
MPH
gust
MPH
rain 1hr
in
rain 24hr
in
rain mn
in
humidity
%
barometer
mb
20260901092028 72 148 1.0 2.0 0.00 1.25 0.00 78 1017.2
20260901091522 73 148 1.0 2.0 0.00 1.25 0.00 78 1017.2
20260901091021 72 148 0.0 3.0 0.00 1.25 0.00 79 1017.3
20260901090515 72 148 2.0 3.0 0.00 1.25 0.00 79 1017.3
20260901090042 72 148 2.0 3.0 0.00 1.25 0.00 79 1017.3
20260901085522 73 148 0.0 2.0 0.00 1.25 0.00 78 1017.3
20260901085016 73 148 0.0 2.0 0.00 1.25 0.00 78 1017.3
20260901084530 73 148 1.0 3.0 0.00 1.25 0.00 77 1017.3
20260901084025 73 148 1.0 3.0 0.00 1.25 0.00 77 1017.3
20260901083524 73 148 1.0 3.0 0.00 1.25 0.00 78 1017.3
20260901083018 73 148 1.0 3.0 0.00 1.25 0.00 77 1017.2
20260901082512 73 148 2.0 5.0 0.00 1.25 0.00 77 1017.3
20260901082027 73 148 2.0 5.0 0.00 1.25 0.00 77 1017.2
20260901081521 73 148 1.0 3.0 0.00 1.25 0.00 77 1017.4
20260901081016 73 148 2.0 3.0 0.00 1.25 0.00 76 1017.3
20260901080531 74 147 1.0 4.0 0.00 1.25 0.00 76 1017.5
20260901080038 73 147 1.0 4.0 0.00 1.25 0.00 76 1017.5
20260901075522 73 147 2.0 4.0 0.00 1.25 0.00 76 1017.4
20260901075017 73 147 2.0 3.0 0.00 1.25 0.00 77 1017.5
20260901074512 73 146 2.0 3.0 0.00 1.25 0.00 77 1017.4
20260901074026 73 146 1.0 2.0 0.00 1.25 0.00 77 1017.6
20260901073521 73 146 1.0 2.0 0.00 1.25 0.00 77 1017.6
20260901073015 73 146 0.0 3.0 0.00 1.25 0.00 76 1017.5
20260901072529 74 146 1.0 3.0 0.00 1.25 0.00 76 1017.6
20260901072028 74 146 1.0 3.0 0.00 1.25 0.00 75 1017.6
20260901071522 74 146 1.0 4.0 0.00 1.25 0.00 75 1017.6
20260901071016 74 146 2.0 4.0 0.00 1.25 0.00 74 1017.6
20260901070530 75 146 2.0 5.0 0.00 1.25 0.00 74 1017.5
20260901070037 75 146 2.0 5.0 0.00 1.25 0.00 74 1017.6
20260901065517 75 147 3.0 6.0 0.00 1.25 1.25 74 1017.5
20260901065012 75 140 3.0 6.0 0.00 1.25 1.25 74 1017.5
20260901064527 75 142 3.0 5.0 0.00 1.25 1.25 74 1017.6
20260901064025 75 142 2.0 5.0 0.00 1.25 1.25 74 1017.7
20260901063520 75 144 2.0 5.0 0.00 1.25 1.25 75 1017.7
20260901063014 74 148 3.0 6.0 0.00 1.25 1.25 76 1017.8
20260901062529 75 151 2.0 6.0 0.00 1.25 1.25 75 1017.8
20260901062023 75 159 3.0 6.0 0.00 1.25 1.25 75 1017.7
20260901061518 75 116 2.0 6.0 0.00 1.25 1.25 76 1017.9
20260901061012 75 115 3.0 6.0 0.00 1.25 1.25 76 1017.9
20260901060531 74 114 3.0 4.0 0.00 1.25 1.25 77 1017.8
20260901060036 74 113 2.0 4.0 0.00 1.25 1.25 77 1017.7
20260901055517 75 109 2.0 4.0 0.00 1.25 1.25 78 1017.7
20260901055031 75 109 2.0 4.0 0.00 1.25 1.25 78 1017.7
20260901054525 75 109 1.0 3.0 0.00 1.25 1.25 78 1017.7
20260901054020 75 109 2.0 3.0 0.00 1.25 1.25 77 1017.8
20260901053514 75 109 2.0 3.0 0.00 1.25 1.25 76 1017.7
20260901053013 75 109 2.0 5.0 0.00 1.25 1.25 77 1017.5
20260901052527 75 109 3.0 5.0 0.00 1.25 1.25 77 1017.5
20260901052021 75 106 3.0 5.0 0.00 1.25 1.25 77 1017.5
20260901051516 75 101 2.0 3.0 0.00 1.25 1.25 77 1017.6
20260901051031 75 101 2.0 3.0 0.00 1.25 1.25 77 1017.7
20260901050525 76 101 2.0 3.0 0.00 1.25 1.25 77 1017.7
20260901050032 76 101 2.0 4.0 0.00 1.25 1.25 76 1017.7
20260901045511 76 101 2.0 5.0 0.00 1.25 1.25 75 1017.8
20260901045030 76 101 3.0 5.0 0.00 1.25 1.25 75 1017.9
20260901044524 76 100 3.0 5.0 0.00 1.25 1.25 76 1017.9
20260901044019 76 99 2.0 4.0 0.00 1.25 1.25 76 1017.8
20260901043512 76 98 2.0 3.0 0.00 1.25 1.25 76 1017.9
20260901043026 76 98 2.0 4.0 0.00 1.25 1.25 76 1017.8
20260901042521 76 99 3.0 4.0 0.00 1.25 1.25 76 1017.6
20260901041520 76 99 2.0 3.0 0.00 1.25 1.25 76 1017.5
20260901041014 76 99 1.0 3.0 0.00 1.25 1.25 75 1017.5
20260901040528 76 99 1.0 3.0 0.00 1.25 1.25 75 1017.5
20260901040036 76 99 1.0 3.0 0.00 1.25 1.25 74 1017.5
20260901035517 76 99 1.0 3.0 0.00 1.25 1.25 75 1017.7
20260901035031 76 99 1.0 2.0 0.00 1.25 1.25 75 1017.5
20260901034525 75 99 1.0 2.0 0.00 1.25 1.25 78 1017.4
20260901034020 75 99 1.0 2.0 0.00 1.25 1.25 79 1017.4
20260901033518 76 99 0.0 0.0 0.00 1.25 1.25 77 1017.5
20260901033033 76 99 0.0 2.0 0.00 1.25 1.25 75 1017.4
20260901032527 75 99 1.0 2.0 0.00 1.25 1.25 77 1017.3
20260901032021 75 99 1.0 2.0 0.00 1.25 1.25 79 1017.2
20260901031515 76 99 1.0 2.0 0.00 1.25 1.25 78 1017.2
20260901031029 76 99 0.0 1.0 0.00 1.25 1.25 75 1017.1
20260901030524 76 99 0.0 1.0 0.00 1.25 1.25 74 1017.1
20260901030034 76 99 1.0 2.0 0.00 1.25 1.25 74 1017.0
20260901025534 77 99 0.0 2.0 0.00 1.25 1.25 74 1017.0
20260901025029 76 99 0.0 2.0 0.00 1.25 1.25 74 1016.9
20260901024524 76 99 1.0 2.0 0.00 1.25 1.25 74 1017.0
20260901024018 77 99 0.0 2.0 0.00 1.25 1.25 73 1016.7
20260901023533 77 99 1.0 2.0 0.00 1.25 1.25 72 1016.7
20260901023027 77 99 1.0 3.0 0.00 1.25 1.25 70 1016.6
20260901022522 77 99 2.0 3.0 0.00 1.25 1.25 70 1016.4
20260901022022 77 99 0.0 2.0 0.00 1.25 1.25 70 1016.4
20260901021518 77 99 1.0 2.0 0.00 1.25 1.25 70 1016.5
20260901021033 77 99 1.0 3.0 0.00 1.25 1.25 69 1016.4
20260901020528 78 99 1.0 3.0 0.00 1.25 1.25 69 1016.0
20260901020035 78 99 1.0 2.0 0.00 1.25 1.25 69 1016.0
20260901015515 78 99 1.0 2.0 0.00 1.25 1.25 68 1016.0
20260901015030 78 99 1.0 2.0 0.00 1.25 1.25 69 1016.0
20260901014529 78 99 0.0 2.0 0.00 1.25 1.25 71 1016.0
20260901014024 78 98 1.0 2.0 0.00 1.25 1.25 70 1015.9
20260901013518 77 99 0.0 3.0 0.00 1.25 1.25 71 1015.9
20260901013032 78 99 0.0 4.0 0.00 1.25 1.25 68 1015.7
20260901012526 78 99 2.0 4.0 0.00 1.25 1.25 68 1015.4
20260901012021 78 98 1.0 2.0 0.00 1.25 1.25 68 1015.5
20260901011515 78 98 1.0 3.0 0.00 1.25 1.25 68 1015.5
20260901011029 78 98 1.0 3.0 0.00 1.25 1.25 68 1015.4
20260901010529 79 98 2.0 4.0 0.00 1.25 1.25 68 1015.5
20260901010034 79 99 2.0 4.0 0.00 1.25 1.25 68 1015.4
20260901005515 79 99 3.0 4.0 0.00 1.25 1.25 67 1015.4
20260901005030 79 98 3.0 4.0 0.00 1.25 1.25 67 1015.5
20260901004524 79 99 2.0 5.0 0.00 1.25 1.25 67 1015.5
20260901004018 79 99 3.0 5.0 0.00 1.25 1.25 66 1015.6
20260901003533 79 100 3.0 5.0 0.00 1.25 1.25 65 1015.5
20260901003032 79 100 2.0 3.0 0.00 1.25 1.25 66 1015.5
20260901002526 79 100 1.0 3.0 0.00 1.25 1.25 68 1015.7
20260901002020 79 100 1.0 5.0 0.00 1.25 1.25 67 1015.8
20260901001514 79 100 3.0 5.0 0.00 1.25 1.25 67 1015.8
20260901001028 79 108 2.0 5.0 0.00 1.25 1.25 68 1015.8
20260901000523 79 146 2.0 5.0 0.00 1.25 1.25 67 1015.8
20260901000029 79 148 2.0 5.0 0.00 1.25 1.25 66 1015.8
20260831235529 79 149 2.0 8.0 0.00 1.25 1.25 66 1015.9
20260831235027 80 133 3.0 8.0 0.00 1.25 1.25 67 1016.0
20260831234522 79 137 3.0 6.0 0.00 1.25 1.25 67 1016.0
20260831234017 79 207 2.0 6.0 0.00 1.25 1.25 67 1015.9
20260831233531 78 110 4.0 8.0 0.00 1.25 1.25 68 1016.1
20260831233026 78 115 5.0 8.0 0.00 1.25 1.25 68 1016.0
20260831232521 78 109 4.0 8.0 0.00 1.25 1.25 68 1016.0
20260831232015 79 92 5.0 8.0 0.00 1.25 1.25 67 1016.1
20260831231534 78 129 5.0 9.0 0.00 1.25 1.25 64 1016.3
20260831231025 78 116 4.0 9.0 0.00 1.25 1.25 64 1016.1
20260831230519 78 77 5.0 9.0 0.00 1.25 1.25 67 1016.1
20260831230046 78 110 5.0 9.0 0.00 1.25 1.25 67 1016.1
20260831225528 78 104 5.0 11.0 0.00 1.25 1.25 68 1016.1
20260831225022 77 124 6.0 13.0 0.00 1.25 1.25 68 1016.3
20260831224517 78 99 5.0 14.0 0.00 1.25 1.25 70 1016.4
20260831224016 77 113 8.0 15.0 0.00 1.25 1.25 70 1016.4
20260831223530 77 104 8.0 14.0 0.00 1.25 1.25 70 1016.5
20260831223023 77 185 6.0 12.0 0.00 1.25 1.25 72 1016.7
20260831222517 77 140 4.0 12.0 0.00 1.25 1.25 75 1016.7
20260831222030 76 146 6.0 11.0 0.00 1.25 1.25 75 1016.7
20260831221524 76 136 5.0 11.0 0.00 1.25 1.25 75 1016.8
20260831221018 76 122 7.0 11.0 0.00 1.25 1.25 75 1016.9
20260831220532 76 112 5.0 11.0 0.00 1.25 1.25 77 1017.0
20260831220042 76 140 6.0 11.0 0.00 1.25 1.25 78 1017.1
20260831215520 75 122 5.0 11.0 0.00 1.25 1.25 79 1017.3
20260831215034 75 111 6.0 11.0 0.00 1.25 1.25 78 1017.4
20260831214528 75 133 6.0 11.0 0.00 1.25 1.25 80 1017.4
20260831214022 74 134 3.0 9.0 0.01 1.25 1.25 83 1017.5
20260831213516 74 204 3.0 6.0 0.01 1.25 1.25 85 1017.8
20260831213031 73 159 3.0 6.0 0.02 1.25 1.25 87 1018.2
20260831212525 72 191 3.0 6.0 0.03 1.25 1.25 90 1018.3
20260831212023 71 204 2.0 6.0 0.03 1.25 1.25 91 1018.3
20260831211517 70 200 2.0 5.0 0.05 1.25 1.25 92 1018.5
20260831211032 70 134 2.0 8.0 0.06 1.25 1.25 92 1018.6
20260831210525 69 206 2.0 9.0 0.07 1.25 1.25 92 1018.8
20260831210031 69 137 3.0 10.0 0.07 1.25 1.25 92 1019.1
20260831205531 69 142 4.0 10.0 0.08 1.25 1.25 92 1019.2
20260831205025 68 216 4.0 8.0 0.08 1.25 1.25 92 1019.5
20260831204523 68 173 2.0 10.0 0.09 1.25 1.25 92 1019.4
20260831204016 68 124 6.0 10.0 0.09 1.24 1.24 92 1019.3
20260831203530 68 92 5.0 8.0 0.10 1.24 1.24 92 1019.5
20260831203024 68 117 4.0 8.0 0.10 1.23 1.23 92 1019.9
20260831202518 68 130 4.0 6.0 0.09 1.22 1.22 92 1020.2
20260831202033 68 135 2.0 8.0 0.10 1.22 1.22 92 1020.4
20260831201527 68 135 4.0 8.0 0.08 1.20 1.20 93 1020.4
20260831201021 68 117 2.0 5.0 0.08 1.19 1.19 93 1020.7
20260831200519 68 129 2.0 8.0 0.07 1.18 1.18 93 1020.8
20260831200047 68 125 4.0 8.0 0.08 1.18 1.18 92 1020.7
20260831195527 68 135 4.0 8.0 0.07 1.17 1.17 93 1020.8
20260831195020 68 124 3.0 6.0 0.09 1.17 1.17 93 1020.9
20260831194514 68 177 3.0 7.0 0.09 1.16 1.16 93 1021.0
20260831194029 67 253 2.0 7.0 0.08 1.15 1.15 93 1021.2
20260831193524 68 254 3.0 7.0 0.08 1.14 1.14 93 1021.3
20260831193023 68 274 3.0 7.0 0.08 1.13 1.13 93 1021.3
20260831192517 69 312 1.0 5.0 0.09 1.13 1.13 93 1021.3
20260831192032 68 312 2.0 4.0 0.09 1.12 1.12 93 1021.3
20260831191526 68 313 2.0 3.0 0.09 1.12 1.12 93 1021.4
20260831191020 68 313 1.0 3.0 0.09 1.11 1.11 92 1021.3
20260831190515 69 314 1.0 5.0 0.15 1.11 1.11 93 1021.2
20260831190043 68 314 2.0 5.0 0.24 1.10 1.10 92 1021.4
20260831185522 68 314 1.0 3.0 0.29 1.10 1.10 92 1021.8
20260831185020 69 314 1.0 3.0 0.32 1.08 1.08 92 1021.8
20260831184514 68 314 0.0 2.0 0.32 1.07 1.07 92 1021.8
20260831184028 68 314 0.0 2.0 0.32 1.07 1.07 92 1021.9
20260831183522 69 314 0.0 1.0 0.31 1.06 1.06 92 1021.7
20260831183015 68 314 0.0 3.0 0.31 1.05 1.05 92 1021.7
20260831182529 68 314 1.0 5.0 0.30 1.04 1.04 92 1021.4
20260831182023 68 315 1.0 7.0 0.30 1.03 1.03 92 1021.4
20260831181521 68 295 3.0 8.0 0.36 1.03 1.03 92 1021.5
20260831181015 68 287 3.0 11.0 0.48 1.01 1.01 92 1021.6
20260831180529 68 289 4.0 11.0 0.47 0.96 0.96 92 1021.8
20260831180036 68 280 6.0 10.0 0.37 0.86 0.86 91 1021.8
20260831175515 69 299 2.0 5.0 0.31 0.80 0.80 91 1021.8
20260831175029 69 297 2.0 8.0 0.27 0.76 0.76 91 1021.8
20260831174523 69 296 2.0 8.0 0.26 0.75 0.75 91 1021.6
20260831174017 70 325 1.0 5.0 0.26 0.75 0.75 91 1021.6
20260831173515 70 325 2.0 5.0 0.26 0.75 0.75 91 1021.4
20260831173030 70 314 2.0 5.0 0.25 0.74 0.74 90 1021.2
20260831172524 70 304 1.0 3.0 0.25 0.74 0.74 90 1021.2
20260831172018 70 302 2.0 6.0 0.24 0.73 0.73 89 1021.2
20260831171532 71 290 2.0 10.0 0.18 0.67 0.67 87 1020.9
20260831171026 72 288 4.0 10.0 0.04 0.53 0.53 83 1020.7
20260831170521 74 295 3.0 10.0 0.00 0.49 0.49 80 1020.7
20260831170030 74 285 3.0 7.0 0.00 0.49 0.49 82 1020.7
20260831165529 74 315 1.0 9.0 0.00 0.49 0.49 81 1020.7
20260831165023 76 325 4.0 9.0 0.00 0.49 0.49 76 1020.3
20260831164517 76 297 2.0 7.0 0.00 0.49 0.49 74 1020.2
20260831164031 77 338 1.0 4.0 0.00 0.49 0.49 75 1019.9
20260831163525 77 354 1.0 4.0 0.00 0.49 0.49 75 1019.8
20260831163019 76 354 1.0 3.0 0.00 0.49 0.49 75 1019.9
20260831162533 76 354 1.0 5.0 0.00 0.49 0.49 76 1019.7
20260831162031 76 354 2.0 7.0 0.00 0.49 0.49 75 1019.7
20260831161525 77 354 1.0 7.0 0.00 0.49 0.49 76 1019.4
20260831161019 77 334 3.0 5.0 0.00 0.49 0.49 75 1019.3
20260831160532 77 323 2.0 6.0 0.00 0.49 0.49 76 1019.2
20260831160039 78 356 2.0 6.0 0.00 0.49 0.49 74 1019.0
20260831155518 78 4 3.0 6.0 0.00 0.49 0.49 74 1019.0
20260831155032 77 4 2.0 5.0 0.00 0.49 0.49 74 1018.9
20260831154526 78 4 3.0 5.0 0.00 0.49 0.49 73 1018.8
20260831154023 78 341 3.0 5.0 0.00 0.49 0.49 73 1018.7
20260831153517 77 329 2.0 6.0 0.00 0.49 0.49 75 1018.6
20260831153031 77 314 3.0 6.0 0.00 0.49 0.49 75 1018.5
20260831152524 77 310 1.0 4.0 0.00 0.49 0.49 78 1018.5
20260831152017 76 310 1.0 5.0 0.00 0.49 0.49 83 1018.5
20260831151531 75 310 2.0 3.0 0.00 0.49 0.49 82 1018.4
20260831151025 74 310 0.0 3.0 0.00 0.49 0.49 82 1018.5
20260831150523 74 310 0.0 5.0 0.00 0.49 0.49 85 1018.4
20260831150028 73 310 1.0 5.0 0.00 0.49 0.49 87 1018.2
20260831145529 73 312 3.0 6.0 0.00 0.49 0.49 87 1018.2
20260831145023 73 337 2.0 4.0 0.00 0.49 0.49 86 1018.0
20260831144517 74 19 1.0 3.0 0.00 0.49 0.49 86 1018.0
20260831144031 74 21 1.0 3.0 0.00 0.49 0.49 85 1018.0
20260831143525 74 21 0.0 3.0 0.00 0.49 0.49 84 1017.9
20260831143018 73 21 0.0 5.0 0.00 0.49 0.49 85 1017.9
20260831142516 72 21 2.0 6.0 0.01 0.49 0.49 84 1017.8
20260831142030 72 23 3.0 6.0 0.01 0.49 0.49 84 1017.9
20260831141524 71 298 0.0 4.0 0.01 0.49 0.49 86 1017.6
20260831141018 71 297 1.0 9.0 0.01 0.49 0.49 88 1017.7
20260831140532 71 296 3.0 9.0 0.01 0.49 0.49 88 1017.6
20260831140038 70 327 2.0 10.0 0.01 0.49 0.49 89 1017.6
20260831135517 70 280 3.0 10.0 0.01 0.49 0.49 90 1017.7
20260831135015 70 285 3.0 7.0 0.01 0.49 0.49 90 1017.7
20260831134530 70 284 2.0 10.0 0.01 0.49 0.49 90 1017.7
20260831134023 70 286 7.0 10.0 0.01 0.49 0.49 91 1017.8
20260831133517 70 274 4.0 10.0 0.01 0.49 0.49 90 1017.8
20260831133031 70 277 5.0 9.0 0.01 0.49 0.49 90 1017.8
20260831132525 70 277 5.0 8.0 0.00 0.48 0.48 90 1017.9
20260831132020 69 313 1.0 6.0 0.01 0.48 0.48 90 1017.8
20260831131513 69 342 2.0 11.0 0.01 0.48 0.48 91 1017.9
20260831131031 69 355 5.0 11.0 0.02 0.48 0.48 91 1018.0
20260831130525 69 333 2.0 5.0 0.11 0.48 0.48 91 1018.2
20260831130031 69 342 2.0 8.0 0.30 0.48 0.48 91 1018.3
20260831125531 69 291 3.0 7.0 0.43 0.48 0.48 91 1018.8
20260831125025 69 310 3.0 5.0 0.46 0.48 0.48 91 1018.7
20260831124519 69 354 2.0 8.0 0.46 0.48 0.48 91 1019.2
20260831124014 69 13 4.0 8.0 0.46 0.48 0.48 91 1018.4
20260831123528 69 25 4.0 9.0 0.46 0.48 0.48 91 1018.7
20260831123026 69 305 1.0 7.0 0.46 0.48 0.48 91 1018.6
20260831122520 69 335 3.0 11.0 0.46 0.48 0.48 90 1018.5
20260831122014 69 358 4.0 10.0 0.46 0.47 0.47 90 1018.5
20260831121528 69 355 4.0 10.0 0.47 0.47 0.47 90 1018.1
20260831121022 70 8 3.0 8.0 0.46 0.46 0.46 89 1018.2
20260831120516 70 311 1.0 5.0 0.34 0.34 0.35 88 1018.0
20260831120040 71 305 2.0 5.0 0.18 0.18 0.18 85 1018.2
20260831115524 72 308 2.0 7.0 0.05 0.05 0.05 82 1018.1
20260831115018 73 308 2.0 7.0 0.02 0.02 0.02 80 1017.6
20260831114532 73 293 3.0 16.0 0.02 0.02 0.02 78 1017.5
20260831114025 72 287 5.0 17.0 0.02 0.02 0.02 80 1017.5
20260831113520 72 261 8.0 17.0 0.02 0.02 0.02 82 1017.4
20260831113014 72 273 10.0 17.0 0.02 0.02 0.02 82 1017.0
20260831112528 72 264 10.0 17.0 0.02 0.02 0.02 83 1017.0
20260831112022 74 266 8.0 20.0 0.00 0.00 0.00 78 1016.9
20260831111015 75 248 13.0 25.0 0.00 0.00 0.00 69 1016.6
20260831110529 76 267 11.0 28.0 0.00 0.00 0.00 67 1016.7
20260831110034 78 240 12.0 28.0 0.00 0.00 0.00 63 1016.4
20260831105514 82 244 8.0 15.0 0.00 0.00 0.00 52 1016.4
20260831105028 82 329 4.0 6.0 0.00 0.00 0.00 52 1016.0
20260831104523 82 332 2.0 5.0 0.00 0.00 0.00 52 1015.5
20260831104022 82 359 1.0 4.0 0.00 0.00 0.00 52 1015.3
20260831103516 82 6 2.0 3.0 0.00 0.00 0.00 52 1015.1
20260831103029 81 6 1.0 3.0 0.00 0.00 0.00 52 1015.0
20260831102523 82 6 1.0 2.0 0.00 0.00 0.00 52 1015.0
20260831102017 82 6 1.0 3.0 0.00 0.00 0.00 52 1014.9
20260831101531 82 6 2.0 3.0 0.00 0.00 0.00 52 1014.9
20260831101025 82 6 0.0 2.0 0.00 0.00 0.00 52 1014.9
20260831100520 82 6 0.0 3.0 0.00 0.00 0.00 54 1014.9
20260831100030 81 6 1.0 3.0 0.00 0.00 0.00 55 1014.8
20260831095529 81 6 0.0 1.0 0.00 0.00 0.00 54 1014.9
20260831095023 81 6 0.0 1.0 0.00 0.00 0.00 54 1014.8
20260831094517 81 6 0.0 2.0 0.00 0.00 0.00 54 1014.8
20260831094031 81 6 0.0 2.0 0.00 0.00 0.00 56 1014.8
20260831093524 81 6 0.0 1.0 0.00 0.00 0.00 54 1014.7
20260831093019 82 6 0.0 1.0 0.00 0.00 0.00 54 1014.5
20260831092517 81 6 0.0 1.0 0.00 0.00 0.00 54 1014.6